Regional Weather Roundup
Issued by NWS

Home | Current Version | Previous Version | Graphics & Text | Print | Product List | Glossary On
Versions: 1 2 3 4 5 6 7 8 9 10 11 12 13 14 15 16 17 18 19 20 21 22 23 24 25 26 27 28 29 30 31 32 33 34 35 36 37 38 39 40 41 42 43 44 45 46 47 48 49 50
473
ASUS43 KOAX 290710
RWRNE

WEATHER ROUNDUP FOR NEBRASKA
NATIONAL WEATHER SERVICE OMAHA NE
200 AM CDT MON AUG 29 2016

NOTES: SATELLITE DATA IS BEING USED TO AUGMENT CLOUD COVER ABOVE
       12000 FEET.
       "FAIR" INDICATES FEW OR NO CLOUDS BELOW 12,000 FEET WITH NO
       SIGNIFICANT WEATHER AND/OR OBSTRUCTIONS TO VISIBILITY.

  * THESE STATIONS DO NOT REPORT WEATHER SUCH AS RAIN...SNOW OR FOG.

NEZ001>004-019>022-054>056-290800-
NEBRASKA PANHANDLE

CITY           SKY/WX    TMP DP  RH WIND       PRES   REMARKS
SCOTTSBLUFF    CLOUDY    60  53  77 CALM      30.16R
ALLIANCE       CLEAR     60  57  89 SE9       30.15S
CHADRON        CLEAR     63  53  70 S3        30.11R
KIMBALL        CLOUDY    61  51  69 W6        30.23R
SIDNEY         CLOUDY    56  52  86 CALM      30.20R
$$

NEZ057>060-069>072-079>082-290800-
SOUTHWEST NEBRASKA

CITY           SKY/WX    TMP DP  RH WIND       PRES   REMARKS
NORTH PLATTE   PTCLDY    62  59  90 E9        30.15R
IMPERIAL       CLEAR     65  61  87 S8        30.15S
LEXINGTON      CLOUDY    69  65  86 SE12      30.16R
MCCOOK         MOCLDY    68  63  84 E3        30.14R
OGALLALA       PTCLDY    67  58  73 CALM      30.15S
$$

NEZ005>010-023>029-035>040-094-290800-
NORTH CENTRAL NEBRASKA

CITY           SKY/WX    TMP DP  RH WIND       PRES   REMARKS
VALENTINE      CLEAR     69  59  70 SW9       30.10S
AINSWORTH      CLEAR     66  62  87 S8        30.13R
BROKEN BOW     CLOUDY    63  62  97 CALM      30.15S
O`NEILL        CLEAR     72  68  89 S7        30.12S
ORD            PTCLDY    70  66  87 S7        30.12F
THEDFORD       CLEAR     67  60  78 S5        30.15R
$$

NEZ041-046>049-061>064-073>077-083>087-290800-
SOUTH CENTRAL NEBRASKA

CITY           SKY/WX    TMP DP  RH WIND       PRES   REMARKS
GRAND ISLAND   CLOUDY    70  65  84 S15       30.15R
AURORA         LGT RAIN  68  67  96 SW10      30.16F
HASTINGS       LGT RAIN  67  64  90 S17G25    30.19R
HEBRON         CLOUDY    68  66  93 CALM      30.15S
HOLDREGE       CLOUDY    67  64  88 SE9       30.18R
KEARNEY *      CLOUDY    68  63  83 S18       30.16R
YORK           CLOUDY    68  66  94 SW6       30.15S
$$

NEZ011>018-030>034-042>045-290800-
NORTHEAST NEBRASKA

CITY           SKY/WX    TMP DP  RH WIND       PRES   REMARKS
NORFOLK        CLOUDY    70  65  84 S9        30.12F
ALBION         CLOUDY    69  65  88 SE5       30.13S
BLAIR          CLOUDY    69  67  93 CALM      30.15S
FREMONT        MOCLDY    70  66  88 CALM      30.15F
TEKAMAH        CLOUDY    67  65  93 S6        30.14S
WAYNE          PTCLDY    68  67  96 S7        30.13F
$$

NEZ050>053-065>068-078-088>093-290800-
SOUTHEAST NEBRASKA

CITY           SKY/WX    TMP DP  RH WIND       PRES   REMARKS
LINCOLN        CLOUDY    71  68  90 S5        30.14S
OMAHA EPPLEY   CLOUDY    71  65  81 SE9       30.14S
BEATRICE       LGT RAIN  70  69  98 CALM      30.14R
FALLS CITY     PTCLDY    70  68  93 CALM      30.11S
NEBRASKA CITY  CLOUDY    69  69 100 CALM      30.14S
PLATTSMOUTH    CLOUDY    70  67  90 E5        30.14S
$$

NEZ044-045-051>053-067-290800-
OMAHA AREA

CITY           SKY/WX    TMP DP  RH WIND       PRES   REMARKS
OMAHA EPPLEY   CLOUDY    71  65  81 SE9       30.14S
BLAIR          CLOUDY    69  67  93 CALM      30.15S
FREMONT        MOCLDY    70  66  88 CALM      30.15F
MILLARD        MOCLDY    71  67  89 CALM      30.14S
OFFUTT AFB     CLOUDY    69  68  98 E5        30.13S
PLATTSMOUTH    CLOUDY    70  67  90 E5        30.14S
WAHOO          FAIR      67  65  93 SE3       30.14F
$$




USA.gov is the U.S. government's official web portal to all federal, state and local government web resources and services.